Temperature
7 6 6 6 6 7 7 7 7 8 8 8 8 9 9 10 11 11 12 13 14 16 17 18 18 19 19 19 19 19 19 18 17 16 15 15 14 14 13 13 13 12 12 11
6 6 6 6 6 6 6 6 6 7 8 8 7 8 9 9 10 11 12 13 14 15 16 17 17 18 18 18 18 18 18 17 17 16 15 15 14 13 13 13 12 12 11 11
5 6 7 6 6 6 6 6 6 6 7 7 7 8 9 9 10 11 12 13 14 14 15 16 17 17 17 17 18 18 17 17 16 15 14 14 13 13 12 12 12 11 11 11
5 6 6 6 5 5 6 6 7 6 6 6 6 7 8 9 9 10 11 12 13 14 15 16 16 17 17 17 17 17 16 16 15 14 14 14 13 13 12 12 11 11 10 10
5 5 5 5 6 6 6 7 7 6 6 6 6 6 8 9 9 10 10 12 13 14 15 16 17 17 17 16 16 16 15 15 14 13 13 13 13 13 12 11 11 11 10 10
6 6 6 6 6 6 7 7 6 6 6 6 7 6 7 8 9 10 10 12 14 15 15 16 16 16 16 15 15 15 14 14 13 13 12 13 13 12 12 11 11 10 10 9
6 6 6 6 6 6 6 6 5 5 6 6 7 7 8 9 10 11 11 13 14 15 15 15 15 15 15 15 14 14 13 13 12 12 12 12 12 12 11 11 10 10 9 9
5 5 6 5 6 6 5 6 5 4 4 5 7 7 9 10 11 12 13 13 14 14 14 14 15 15 15 14 14 13 13 12 12 12 12 11 11 11 10 10 9 9 8 8
5 5 6 6 6 6 6 6 6 6 5 5 6 7 8 10 9 10 11 12 12 13 12 13 14 14 14 14 13 13 12 12 11 11 11 11 10 10 10 9 9 8 8 7
5 5 6 6 6 6 6 6 6 6 6 6 7 8 9 10 10 10 10 10 11 11 10 11 12 13 13 13 12 12 11 11 11 10 10 10 10 9 9 9 8 8 7 6
5 5 5 6 6 6 6 6 6 6 6 6 7 9 11 10 11 10 10 10 10 10 9 9 9 11 11 11 11 11 11 11 10 10 10 9 9 9 8 8 7 7 6 5
5 5 5 5 6 7 7 7 6 6 7 6 7 9 11 10 9 9 9 9 9 9 8 7 7 9 10 10 10 10 10 10 10 9 9 9 9 8 8 7 7 6 5 5
5 5 5 5 6 6 6 7 7 7 7 7 7 9 11 10 8 8 8 8 8 7 6 6 7 8 9 10 10 10 10 9 9 9 9 8 8 7 7 6 6 5 5 4
7 5 6 6 7 7 6 7 7 6 7 7 8 9 10 10 9 8 7 7 7 6 5 5 7 8 9 9 9 9 9 9 9 8 8 8 7 7 6 6 5 4 4 3
7 6 6 7 7 7 7 7 7 7 7 7 8 9 10 10 8 7 7 7 6 5 5 5 7 8 9 9 9 9 8 8 8 8 7 7 6 6 6 5 4 3 3 2
6 6 7 7 8 8 8 8 8 8 8 8 8 9 10 9 7 6 6 6 6 5 5 5 7 8 9 9 9 8 8 8 7 7 7 6 6 5 5 4 3 3 2 2
6 6 7 7 8 8 8 9 9 8 9 8 9 10 10 9 8 7 7 7 6 5 5 6 7 9 9 9 8 8 8 7 7 6 6 6 5 5 4 3 2 2 1 1
6 6 7 7 7 8 10 10 9 9 10 10 10 10 10 10 9 8 8 7 7 6 6 7 8 8 8 8 8 8 7 7 6 6 5 5 4 4 3 2 2 1 1 1
7 7 7 7 8 8 10 10 9 9 10 10 10 10 9 9 9 8 9 8 8 7 8 8 9 9 9 8 8 7 6 6 5 5 5 4 4 3 2 2 1 1 0 0
6 7 7 7 8 8 10 10 10 10 11 11 10 10 9 10 11 10 9 9 9 8 8 8 8 9 8 8 7 7 6 5 5 5 4 3 3 2 1 1 1 0 -0 -1
6 6 7 7 7 8 9 9 10 11 11 10 10 10 9 10 10 9 10 10 9 9 9 9 9 8 8 8 7 6 6 5 4 4 3 2 2 1 1 0 0 -0 -1 -1
7 6 6 7 7 8 10 10 10 10 10 9 9 9 9 7 7 9 10 9 9 9 8 8 8 8 7 7 7 6 5 4 4 3 2 2 1 1 0 -0 -0 -1 -1 -2
6 7 7 7 8 9 9 9 10 10 9 9 8 8 8 7 6 7 7 8 8 8 8 8 8 7 6 6 6 6 5 4 3 2 2 1 1 0 -0 -1 -1 -1 -2 -3
6 6 6 7 7 8 10 10 10 10 10 9 8 7 8 7 6 6 6 6 7 7 7 7 7 6 5 5 5 5 4 3 2 2 1 0 0 -0 -1 -1 -2 -2 -3 -3
7 6 6 7 8 8 10 10 10 10 9 9 8 7 7 7 6 6 6 6 6 6 6 6 6 6 5 4 4 3 3 2 2 1 0 -0 -1 -1 -1 -2 -2 -3 -4 -5
6 6 7 8 9 8 9 9 9 9 9 8 8 6 6 7 6 6 6 6 6 6 6 6 6 5 4 3 3 2 2 1 1 0 -0 -1 -1 -2 -2 -2 -3 -4 -4 -5
Wind_Speed
3 3 7 9 10 6 1 4 7 6 6 7 13 20 15 12 13 14 13 13 13 14 12 8 7 7 6 6 7 9 11 12 13 12 11 10 8 8 8 8 12 14 14 13
2 9 9 6 5 6 7 11 13 10 7 8 14 25 19 15 16 18 18 17 16 13 10 8 7 7 7 8 8 9 11 12 12 10 7 6 8 8 8 7 11 14 14 12
9 3 5 7 7 8 10 11 10 9 8 8 13 19 17 13 18 21 20 19 16 16 14 11 9 9 8 8 10 10 11 11 11 12 13 13 9 7 6 8 7 9 13 13
7 7 4 5 7 10 10 8 10 10 8 7 5 10 9 9 13 18 18 17 17 16 15 12 11 10 10 9 8 10 11 12 13 15 16 18 12 9 6 7 8 9 12 12
7 5 8 11 9 9 7 5 7 8 9 12 9 10 14 7 13 14 15 16 17 16 16 15 14 13 10 9 10 11 12 13 12 12 15 15 13 10 10 10 11 10 8 10
9 5 6 8 7 9 5 3 6 7 7 13 13 12 14 10 13 12 14 15 17 17 16 13 11 11 10 10 10 12 14 12 11 12 13 16 19 18 15 12 10 8 6 6
8 10 8 5 3 5 7 4 3 4 8 10 8 11 16 14 12 15 16 16 16 15 14 14 16 16 15 15 14 13 15 13 12 12 13 15 17 17 16 13 11 9 6 5
5 7 9 9 11 8 10 10 8 6 7 6 5 13 14 15 14 14 17 15 13 13 14 17 19 19 18 17 16 15 15 14 13 13 13 13 14 11 10 10 9 8 7 6
6 6 4 8 7 9 7 11 9 7 8 10 10 10 12 11 13 16 17 15 14 13 15 17 18 18 18 18 17 17 17 15 14 14 15 13 12 12 12 10 9 8 7 6
7 6 5 4 6 9 8 5 5 8 6 9 10 12 12 14 15 15 15 14 12 12 14 15 16 16 15 15 15 15 16 16 15 15 13 12 12 12 12 11 10 9 7 6
7 6 4 3 10 11 11 8 9 7 7 6 9 10 4 11 13 13 13 11 12 15 17 17 15 15 15 16 16 16 16 16 15 14 14 14 12 12 11 10 9 8 7 7
9 5 7 10 10 10 12 13 12 9 9 7 9 14 2 7 11 8 6 8 12 15 16 16 16 17 17 17 16 16 15 15 14 14 14 14 12 12 11 10 9 8 7 6
10 6 4 6 3 6 8 13 16 13 9 11 13 14 4 8 10 5 3 9 14 16 17 16 16 16 16 16 15 15 15 15 14 14 14 13 12 11 11 9 8 7 7 6
10 7 9 9 5 4 8 12 15 15 11 13 16 23 24 16 8 2 5 10 14 16 17 16 15 14 14 14 15 15 14 14 14 14 14 13 11 10 10 9 8 7 6 6
8 7 11 16 17 16 19 20 19 21 19 15 16 21 24 14 6 4 7 13 15 15 16 16 16 15 14 14 14 14 14 13 14 14 13 11 10 10 9 8 7 7 6 5
8 6 7 14 17 18 22 21 20 20 19 20 21 23 16 6 3 6 10 14 16 16 16 15 16 16 16 16 15 15 14 12 13 13 12 11 10 9 8 8 7 6 5 4
6 5 5 9 11 12 11 12 14 12 12 12 15 14 8 4 7 11 13 14 15 16 16 16 16 16 15 15 16 16 13 13 13 13 12 10 10 9 8 7 6 5 4 3
6 5 4 6 7 6 6 4 7 10 11 12 12 10 6 4 4 6 9 11 12 14 15 15 14 14 13 13 14 14 14 13 13 12 11 10 9 9 7 7 6 4 2 2
10 6 4 3 5 8 8 3 3 4 5 9 11 8 2 2 4 2 5 8 9 11 12 13 13 15 16 16 16 16 14 13 13 12 11 9 9 9 7 6 4 3 2 2
8 7 5 4 4 5 6 4 1 2 4 3 6 7 4 3 1 1 6 9 11 12 13 14 15 16 16 15 16 17 15 13 12 11 10 9 9 8 7 5 3 2 1 2
6 6 8 7 5 7 8 6 1 2 4 3 3 4 5 3 1 3 7 9 12 14 15 16 17 15 15 16 17 16 15 12 11 11 11 9 8 8 7 5 3 2 2 4
8 7 6 6 5 7 5 3 1 3 4 3 2 2 4 4 6 7 9 12 14 16 16 16 16 14 13 14 16 16 13 12 12 12 11 9 8 6 5 5 3 3 3 5
8 8 6 8 9 5 3 4 4 3 3 3 1 2 8 7 7 9 10 11 13 15 14 14 17 16 12 11 14 16 13 13 13 12 10 8 7 6 5 4 3 3 3 3
5 4 4 5 8 8 6 4 2 3 2 3 4 6 6 10 11 12 12 12 13 13 14 15 17 16 13 11 12 14 14 13 13 11 9 7 6 5 4 3 2 2 3 4
6 6 5 6 8 6 4 1 3 5 7 8 9 9 11 15 14 13 13 13 13 13 12 13 15 16 14 13 13 12 12 13 12 10 7 6 5 4 3 2 2 3 3 5
6 8 7 7 6 5 3 3 6 7 7 8 12 12 10 11 15 14 13 12 12 13 13 14 15 15 14 14 13 10 10 11 11 8 6 4 4 3 2 3 4 6 6 11
Wind_Direction
145 179 212 211 211 223 241 255 265 268 304 308 277 277 273 267 268 264 260 255 251 250 253 248 230 204 183 172 162 156 148 148 146 144 137 128 119 111 99 95 100 100 100 99
172 236 231 210 205 230 249 266 272 280 267 273 280 280 274 252 254 252 251 251 250 249 249 232 208 189 185 175 163 152 152 152 151 145 131 120 119 107 99 96 93 98 100 99
205 244 204 193 204 223 238 244 256 265 302 275 286 285 262 238 233 241 241 241 240 237 236 226 203 195 184 179 169 158 151 145 137 131 122 117 109 106 104 100 92 90 97 97
235 246 254 212 215 212 251 228 237 254 265 272 235 286 273 228 240 241 240 234 233 231 225 215 196 189 186 179 160 147 143 141 141 140 142 143 142 136 127 123 112 98 95 95
225 217 214 226 223 195 225 225 229 240 247 264 236 261 278 213 246 246 240 234 230 225 217 207 194 186 172 157 150 143 138 139 143 144 146 137 127 122 124 118 111 101 90 87
238 214 207 218 222 203 210 285 278 248 247 261 229 222 271 235 233 239 237 231 227 220 211 197 175 156 148 143 141 142 140 139 139 140 141 138 135 135 133 128 119 109 97 82
246 232 217 183 190 182 180 206 266 251 230 249 187 210 249 245 223 227 236 236 226 214 195 176 163 160 157 153 150 147 143 139 136 134 133 137 137 137 137 133 128 121 107 93
248 262 210 196 202 194 190 191 210 230 239 272 224 233 251 249 234 233 237 236 225 205 186 176 171 165 162 157 153 149 145 139 135 131 127 127 126 124 124 122 121 114 111 107
221 262 244 204 190 177 188 210 218 252 264 270 255 259 277 256 248 241 239 234 220 196 181 174 167 163 159 156 154 150 144 137 133 130 126 121 118 119 118 113 107 106 107 106
195 257 264 219 168 206 209 186 188 221 252 259 262 259 262 279 265 249 237 227 208 181 170 164 161 157 153 148 141 139 139 135 131 128 127 123 117 116 116 113 108 105 100 98
186 230 274 209 202 204 199 213 218 229 236 255 280 270 246 289 287 266 246 216 183 169 164 159 152 145 138 136 137 135 133 130 128 124 121 119 116 114 110 108 107 107 103 100
190 223 254 237 226 207 206 214 213 235 244 241 267 275 266 305 305 282 241 182 162 156 150 146 142 138 138 138 137 135 134 130 127 124 120 118 117 113 109 108 107 107 103 97
170 208 266 298 249 203 227 228 225 234 251 251 257 271 281 336 340 340 138 141 142 140 136 135 137 139 139 138 136 134 131 128 125 123 121 119 117 114 113 112 110 106 103 95
176 206 219 237 248 222 239 239 231 233 244 253 250 268 287 303 308 327 130 136 138 139 139 140 139 137 136 135 134 131 127 127 126 123 122 121 120 119 117 115 110 106 104 95
198 236 240 255 266 269 266 261 247 237 238 250 265 274 284 294 266 184 149 141 140 142 144 146 143 139 135 133 130 129 128 127 127 124 122 122 120 117 114 111 107 102 94 88
196 246 262 269 265 267 269 264 253 245 241 246 264 275 278 278 162 151 155 155 155 155 153 150 146 143 143 141 138 133 131 129 126 124 124 125 122 117 114 111 107 99 87 72
196 221 263 277 286 286 269 255 239 231 225 228 246 259 272 258 192 176 171 170 168 162 158 156 155 152 148 145 142 138 134 129 124 125 127 127 123 118 115 112 102 92 81 53
203 210 251 285 305 275 267 278 223 227 234 222 242 264 276 248 193 175 174 171 166 162 158 154 149 142 136 132 132 128 128 128 127 127 128 127 123 118 113 104 95 84 71 35
200 200 244 272 288 286 296 288 189 208 255 231 238 254 259 140 95 117 166 160 158 154 149 145 141 138 137 137 136 132 129 128 130 132 133 130 126 121 113 103 92 80 49 8
186 192 225 269 291 283 288 293 251 184 298 260 230 240 205 179 77 227 156 140 136 134 135 135 134 134 137 139 138 135 136 136 138 136 130 123 120 118 113 106 95 71 33 345
164 192 219 240 262 274 273 286 192 148 279 312 251 237 191 200 163 91 114 118 128 129 131 132 135 139 142 143 139 137 138 138 133 126 119 114 112 113 111 101 86 56 20 357
175 183 197 192 226 260 297 355 152 259 296 314 290 240 159 111 77 82 97 113 121 124 127 131 130 130 134 140 137 133 132 128 124 120 115 112 107 104 102 93 72 44 19 354
199 193 189 201 222 251 280 269 287 285 292 318 326 106 126 111 97 95 98 106 113 120 121 123 125 123 122 128 133 131 129 127 122 116 114 111 103 92 90 84 57 23 6 344
241 196 198 251 263 263 265 263 305 11 24 40 84 103 113 116 114 108 106 106 108 111 116 122 122 122 116 110 114 123 126 124 120 118 115 112 104 91 68 60 48 12 336 320
218 178 203 254 272 290 284 214 122 90 85 83 77 85 110 117 114 114 111 110 111 112 114 119 121 119 114 110 110 116 121 120 116 114 112 106 97 90 62 32 351 321 277 282
194 181 185 224 234 212 251 123 124 115 106 106 105 95 89 109 116 112 107 108 111 111 111 110 111 113 111 111 109 109 114 118 119 115 109 102 94 78 54 8 335 324 321 323
Height
1477 1481 1481 1481 1482 1483 1484 1484 1483 1480 1477 1477 1469 1460 1456 1454 1452 1449 1448 1446 1446 1446 1449 1452 1455 1457 1459 1461 1463 1465 1468 1470 1472 1475 1478 1482 1487 1492 1495 1498 1501 1503 1505 1506
1479 1478 1476 1478 1480 1482 1484 1484 1482 1479 1477 1473 1466 1453 1447 1446 1443 1441 1440 1439 1439 1440 1442 1445 1448 1450 1452 1455 1457 1460 1463 1465 1467 1471 1474 1479 1483 1488 1492 1495 1498 1501 1503 1504
1475 1474 1471 1475 1479 1481 1481 1482 1480 1481 1477 1472 1469 1446 1435 1431 1430 1428 1427 1428 1430 1432 1435 1438 1441 1444 1447 1450 1453 1455 1458 1461 1464 1467 1471 1475 1480 1485 1489 1493 1496 1498 1501 1503
1474 1471 1472 1474 1476 1478 1477 1475 1475 1476 1478 1473 1469 1454 1426 1425 1421 1418 1417 1418 1419 1423 1427 1430 1434 1438 1442 1445 1449 1452 1455 1458 1461 1464 1468 1472 1477 1482 1486 1490 1494 1497 1499 1501
1468 1468 1469 1471 1470 1472 1473 1471 1472 1473 1474 1471 1464 1463 1424 1419 1415 1410 1409 1409 1410 1413 1417 1421 1426 1432 1437 1441 1444 1448 1451 1454 1458 1463 1467 1472 1476 1480 1484 1488 1492 1495 1497 1498
1464 1464 1465 1464 1464 1466 1468 1471 1471 1469 1470 1462 1449 1457 1424 1410 1404 1400 1399 1399 1399 1402 1407 1412 1418 1425 1430 1435 1440 1444 1448 1452 1456 1461 1466 1470 1474 1478 1482 1486 1490 1493 1495 1496
1459 1459 1459 1460 1463 1465 1468 1472 1473 1470 1461 1449 1439 1439 1411 1392 1391 1390 1389 1389 1389 1392 1397 1402 1408 1416 1423 1429 1435 1440 1444 1449 1454 1460 1465 1470 1474 1478 1482 1485 1489 1492 1493 1494
1459 1458 1453 1453 1455 1459 1462 1465 1470 1473 1466 1450 1435 1422 1395 1383 1382 1380 1380 1380 1382 1385 1388 1393 1400 1408 1416 1423 1430 1436 1441 1447 1452 1458 1464 1469 1473 1477 1481 1485 1488 1490 1492 1492
1457 1455 1448 1448 1449 1454 1457 1458 1456 1460 1453 1446 1428 1408 1390 1377 1376 1373 1372 1372 1373 1377 1381 1386 1393 1402 1410 1418 1425 1432 1438 1445 1451 1457 1462 1467 1472 1477 1480 1484 1486 1488 1490 1490
1452 1454 1447 1444 1447 1448 1449 1449 1453 1452 1444 1434 1415 1402 1385 1373 1369 1366 1364 1364 1366 1371 1377 1382 1389 1397 1406 1414 1423 1431 1438 1444 1450 1456 1461 1466 1471 1476 1479 1482 1485 1487 1487 1488
1448 1451 1447 1444 1442 1440 1445 1446 1444 1441 1437 1431 1415 1389 1369 1369 1363 1359 1356 1356 1360 1366 1372 1379 1386 1394 1403 1412 1421 1429 1436 1442 1449 1455 1461 1466 1470 1474 1478 1481 1483 1485 1485 1485
1444 1446 1443 1439 1430 1430 1432 1432 1435 1434 1427 1422 1413 1382 1364 1365 1359 1354 1352 1353 1357 1363 1370 1377 1384 1392 1401 1411 1419 1427 1434 1441 1448 1454 1460 1465 1469 1473 1477 1479 1481 1482 1483 1483
1439 1442 1440 1435 1430 1430 1428 1425 1424 1425 1421 1414 1407 1380 1360 1361 1360 1356 1353 1354 1358 1364 1371 1378 1385 1393 1401 1410 1418 1426 1434 1441 1448 1454 1459 1464 1469 1472 1475 1478 1479 1480 1481 1481
1433 1435 1435 1431 1420 1420 1420 1417 1416 1418 1411 1403 1393 1377 1362 1362 1362 1361 1359 1359 1362 1367 1372 1378 1386 1394 1402 1410 1418 1426 1434 1441 1448 1454 1459 1464 1468 1471 1474 1476 1477 1478 1478 1478
1428 1426 1424 1419 1415 1413 1411 1406 1404 1403 1400 1397 1384 1377 1364 1361 1361 1362 1362 1362 1366 1370 1375 1381 1387 1394 1403 1411 1419 1427 1434 1442 1448 1454 1459 1463 1467 1470 1472 1474 1475 1476 1476 1476
1423 1422 1418 1412 1406 1404 1398 1391 1389 1388 1389 1387 1384 1374 1362 1361 1360 1362 1363 1364 1367 1372 1377 1383 1389 1396 1403 1411 1419 1427 1435 1442 1448 1454 1458 1462 1466 1468 1470 1472 1473 1474 1474 1473
1418 1418 1416 1407 1399 1398 1388 1378 1377 1378 1376 1378 1377 1367 1360 1361 1360 1361 1362 1365 1368 1372 1377 1383 1389 1397 1404 1412 1420 1427 1435 1442 1449 1454 1458 1462 1465 1467 1469 1470 1471 1471 1471 1470
1414 1415 1413 1407 1401 1390 1378 1369 1368 1369 1368 1369 1366 1361 1360 1358 1359 1360 1363 1365 1369 1374 1379 1385 1391 1399 1406 1414 1422 1430 1437 1443 1448 1453 1457 1461 1463 1465 1467 1468 1469 1469 1469 1467
1407 1410 1410 1407 1399 1387 1374 1368 1368 1369 1366 1362 1361 1359 1360 1359 1359 1362 1363 1366 1370 1375 1380 1386 1393 1400 1407 1415 1423 1430 1437 1443 1448 1453 1456 1459 1462 1464 1465 1466 1467 1467 1466 1464
1403 1406 1409 1405 1399 1389 1375 1367 1365 1368 1366 1358 1358 1358 1360 1359 1361 1362 1362 1366 1372 1377 1382 1388 1394 1401 1409 1416 1424 1430 1437 1443 1448 1452 1455 1458 1460 1462 1464 1465 1465 1464 1463 1460
1402 1404 1404 1402 1399 1387 1373 1367 1367 1372 1367 1359 1358 1358 1359 1359 1360 1362 1363 1367 1372 1378 1383 1389 1395 1402 1409 1416 1424 1430 1437 1442 1447 1451 1454 1457 1459 1461 1462 1463 1462 1461 1459 1457
1394 1397 1398 1398 1396 1387 1369 1367 1368 1367 1361 1359 1357 1357 1358 1360 1361 1362 1365 1368 1373 1378 1385 1390 1396 1403 1410 1417 1424 1431 1437 1443 1447 1451 1454 1456 1458 1460 1461 1461 1460 1458 1456 1453
1388 1386 1387 1387 1381 1372 1369 1368 1366 1364 1361 1359 1357 1356 1357 1359 1361 1364 1367 1371 1376 1381 1386 1392 1398 1405 1412 1420 1426 1432 1438 1443 1447 1450 1453 1456 1457 1459 1459 1458 1457 1455 1452 1449
1382 1380 1381 1380 1373 1368 1366 1365 1364 1362 1361 1359 1357 1357 1358 1360 1363 1366 1370 1374 1379 1384 1389 1395 1401 1407 1414 1422 1429 1434 1439 1443 1447 1450 1453 1455 1456 1457 1457 1456 1454 1451 1448 1445
1374 1377 1377 1375 1369 1365 1362 1363 1363 1362 1361 1360 1360 1360 1361 1363 1366 1370 1374 1378 1383 1388 1394 1400 1405 1411 1417 1424 1431 1436 1441 1444 1447 1450 1453 1454 1455 1455 1454 1453 1451 1448 1445 1442
1369 1371 1372 1369 1364 1364 1363 1362 1363 1363 1363 1363 1363 1364 1367 1369 1371 1375 1379 1384 1389 1394 1399 1404 1410 1416 1422 1428 1433 1438 1442 1445 1448 1450 1452 1453 1453 1453 1452 1450 1448 1445 1443 1439